Location: *
(39.6167°S, 171.5333°W)
Time: 05:34:11
(UTC+00:00)

Cosmos 1741 Rocket - Pass Details

Date: 13 May 2021
Orbit: 762 x 782 km, 74.0° (Epoch: 16 June)

Event Time Altitude Azimuth Distance (km) Brightness Sun altitude
Rises 17:02:02 0° 348° (NNW) 3,233 7.2 -15.6°
Reaches altitude 10° 17:04:24 10° 350° (N) 2,317 6.5 -15.1°
Maximum altitude 17:09:39 74° 73° (ENE) 816 4.3 -14.1°
Drops below altitude 10° 17:15:01 10° 158° (SSE) 2,361 6.6 -13.1°
Sets 17:17:26 0° 159° (SSE) 3,298 7.4 -12.7°
